Tracking 30918 objects as of 2-Jul-2025
HD Live streaming from Space Station
objects crossing your sky now

COSMOS 2251 DEB

Track COSMOS 2251 DEB now!
10-day predictions


NORAD ID: 37959
Int'l Code: 1993-036BPJ
Perigee: 668.1 km
Apogee: 753.3 km
Inclination: 74.0 °
Period: 98.8 minutes
Semi major axis: 7081 km
RCS: 0.0013 m2 (small)
Launch date: June 16, 1993
Source: Commonwealth of Independent States (former USSR) (CIS)
Launch site: PLESETSK MISSILE AND SPACE COMPLEX (PKMTR)

Note: This is SATELLITE DEBRIS
Your satellite tracking list
Your tracking list is empty




NASA's NSSDC Master Catalog

Two Line Element Set (TLE):
1 37959U 93036BPJ 25181.51530856  .00001792  00000-0  39737-3 0  9995
2 37959  74.0104  11.4062 0060215 192.2287 198.6140 14.56788379777200
Source of the keplerian elements: AFSPC